View from above orbital plane
|
View from above satellite
|
Ground track
|
The orbit data is extracted from the following two-line orbital elements,
1 41471U 16028A 19051.89798323 -.00000188 +00000-0 +00000-0 0 9997
2 41471 000.0134 113.0846 0002144 215.1430 299.5372 01.00270685010307
Epoch (UTC): | 20 February 2019 21:33:05 |
Eccentricity: | 0.0002144 |
inclination: | 0.0134° |
perigee height: | 35777 km |
apogee height: | 35795 km |
right ascension of ascending node: | 113.0846° |
argument of perigee: | 215.1430° |
revolutions per day: | 1.00270685 |
mean anomaly at epoch: | 299.5372° |
orbit number at epoch: | 1030 |
The dashed part of the orbit path shows where the satellite is in the earth's shadow,
|
|